This is the latest recevied weather packets stored in our database for station/object KA2FNK. If no packets are shown the sender has not sent any weather packets the latest 10 day(s).
| Time | Temp. | Humidity | Pressure | Rain* | Wind** | Luminosity | Snow |
|---|---|---|---|---|---|---|---|
| 1777672261 | 17.22° C | 38% | 1016 hPa | 0 mm | - | - | - |
| 1777671960 | 16.67° C | 41% | 1016 hPa | 0 mm | - | - | - |
| 1777671659 | 16.67° C | 41% | 1016 hPa | 0 mm | - | - | - |
| 1777671359 | 16.67° C | 40% | 1016.1 hPa | 0 mm | - | - | - |
| 1777671058 | 16.67° C | 40% | 1016.3 hPa | 0 mm | - | - | - |
| 1777670757 | 16.67° C | 43% | 1016.4 hPa | 0 mm | - | - | - |
| 1777670455 | 16.11° C | 43% | 1016.4 hPa | 0 mm | - | - | - |
| 1777670154 | 16.11° C | 41% | 1016.6 hPa | 0 mm | - | - | - |
| 1777669854 | 16.11° C | 43% | 1016.6 hPa | 0 mm | - | - | - |
| 1777669553 | 16.11° C | 42% | 1016.7 hPa | 0 mm | - | - | - |
| 1777669252 | 16.11° C | 44% | 1016.6 hPa | 0 mm | - | - | - |
| 1777668951 | 16.11° C | 45% | 1016.7 hPa | 0 mm | - | - | - |
| 1777668649 | 16.11° C | 43% | 1016.8 hPa | 0 mm | - | - | - |
| 1777668348 | 16.11° C | 42% | 1017 hPa | 0 mm | - | - | - |
| 1777668048 | 16.11° C | 41% | 1016.9 hPa | 0 mm | - | - | - |
| 1777667747 | 16.11° C | 40% | 1017 hPa | 0 mm | - | - | - |
| 1777667445 | 16.11° C | 41% | 1017.1 hPa | 0 mm | - | - | - |
| 1777667144 | 16.11° C | 41% | 1017 hPa | 0 mm | - | - | - |
| 1777666843 | 16.11° C | 46% | 1017.2 hPa | 0 mm | - | - | - |
| 1777666543 | 16.11° C | 44% | 1017.2 hPa | 0 mm | - | - | - |
| 1777666241 | 16.11° C | 44% | 1017.2 hPa | 0 mm | - | - | - |
| 1777665940 | 16.67° C | 44% | 1017.3 hPa | 0 mm | - | - | - |
| 1777665639 | 16.67° C | 42% | 1017.4 hPa | 0 mm | - | - | - |
| 1777665339 | 16.67° C | 41% | 1017.4 hPa | 0 mm | - | - | - |
| 1777665037 | 16.67° C | 45% | 1017.4 hPa | 0 mm | - | - | - |
* Rain latest hour (hover to see other rain measurements)
** Current wind speed in m/s (hover to see current wind gust speed)